Time,TemperatureF,DewpointF,PressureIn,WindDirection,WindDirectionDegrees,WindSpeedMPH,WindSpeedGustMPH,Humidity,HourlyPrecipIn,Conditions,Clouds,dailyrainin,SoftwareType,DateUTC
2013-11-07 00:01:00,71.5,67.4,30.01,ENE,63,0.0,0.0,87,0.00,,---,0.00,VWS V13.01,2013-11-07 05:01:00,
2013-11-07 00:02:00,71.5,67.4,30.01,ENE,63,0.0,0.0,87,0.00,,---,0.00,VWS V13.01,2013-11-07 05:02:00,
2013-11-07 00:03:00,71.5,67.4,30.01,ENE,63,0.0,0.0,87,0.00,,---,0.00,VWS V13.01,2013-11-07 05:03:00,
2013-11-07 00:04:00,71.5,67.8,30.01,ENE,63,0.0,0.0,88,0.00,,---,0.00,VWS V13.01,2013-11-07 05:04:00,
2013-11-07 00:06:00,71.5,67.8,30.01,ENE,62,0.0,0.0,88,0.00,,---,0.00,VWS V13.01,2013-11-07 05:06:00,
2013-11-07 00:12:00,71.5,67.8,30.01,ENE,62,0.0,0.0,88,0.00,,---,0.00,VWS V13.01,2013-11-07 05:12:00,
2013-11-07 00:17:00,71.5,67.8,30.00,ENE,62,0.0,0.0,88,0.00,,---,0.00,VWS V13.01,2013-11-07 05:17:00,
2013-11-07 00:22:00,71.5,67.8,30.00,ENE,62,0.0,0.0,88,0.00,,---,0.00,VWS V13.01,2013-11-07 05:22:00,
2013-11-07 00:27:00,71.4,67.7,30.00,ENE,62,0.0,0.0,88,0.00,,---,0.00,VWS V13.01,2013-11-07 05:27:00,
2013-11-07 00:32:00,71.4,67.7,30.00,ENE,62,0.0,0.0,88,0.00,,---,0.00,VWS V13.01,2013-11-07 05:32:00,
2013-11-07 00:37:00,71.3,67.6,30.00,ENE,63,0.0,0.0,88,0.00,,---,0.00,VWS V13.01,2013-11-07 05:37:00,
2013-11-07 00:42:00,71.3,67.6,30.00,ENE,63,0.0,0.0,88,0.00,,---,0.00,VWS V13.01,2013-11-07 05:42:00,
2013-11-07 00:47:00,71.3,67.6,30.00,ENE,63,0.0,0.0,88,0.00,,---,0.00,VWS V13.01,2013-11-07 05:47:00,
2013-11-07 00:52:00,71.3,67.6,30.00,ENE,63,0.0,0.0,88,0.00,,---,0.00,VWS V13.01,2013-11-07 05:52:00,
2013-11-07 00:57:00,71.2,67.5,29.99,ENE,63,0.0,0.0,88,0.00,,---,0.00,VWS V13.01,2013-11-07 05:57:00,
2013-11-07 01:02:00,71.2,67.5,29.99,ENE,63,0.0,0.0,88,0.00,,---,0.00,VWS V13.01,2013-11-07 06:02:00,
2013-11-07 01:08:00,71.1,67.4,29.99,ENE,63,0.0,0.0,88,0.00,,---,0.00,VWS V13.01,2013-11-07 06:08:00,
2013-11-07 01:13:00,71.1,67.4,29.99,ENE,63,0.0,0.0,88,0.00,,---,0.00,VWS V13.01,2013-11-07 06:13:00,
2013-11-07 01:18:00,71.1,67.4,29.99,ENE,63,0.0,0.0,88,0.00,,---,0.00,VWS V13.01,2013-11-07 06:18:00,
2013-11-07 01:23:00,71.0,67.3,29.99,ENE,63,0.0,0.0,88,0.00,,---,0.00,VWS V13.01,2013-11-07 06:23:00,
2013-11-07 01:28:00,71.0,67.3,29.99,ENE,63,0.0,0.0,88,0.00,,---,0.00,VWS V13.01,2013-11-07 06:28:00,
2013-11-07 01:33:00,71.0,67.3,29.99,ENE,63,0.0,0.0,88,0.00,,---,0.00,VWS V13.01,2013-11-07 06:33:00,
2013-11-07 01:38:00,70.9,67.2,29.99,ENE,63,0.0,0.0,88,0.00,,---,0.00,VWS V13.01,2013-11-07 06:38:00,
2013-11-07 01:43:00,70.9,67.2,29.98,ENE,63,0.0,0.0,88,0.00,,---,0.00,VWS V13.01,2013-11-07 06:43:00,
2013-11-07 01:48:00,70.8,67.4,29.98,ENE,63,0.0,0.0,89,0.00,,---,0.00,VWS V13.01,2013-11-07 06:48:00,
2013-11-07 01:53:00,70.8,67.4,29.99,ENE,63,0.0,0.0,89,0.00,,---,0.00,VWS V13.01,2013-11-07 06:53:00,
2013-11-07 01:59:00,70.7,67.3,29.99,ENE,63,0.0,0.0,89,0.00,,---,0.00,VWS V13.01,2013-11-07 06:59:00,
2013-11-07 02:04:00,70.6,67.2,29.98,ENE,63,0.0,0.0,89,0.00,,---,0.00,VWS V13.01,2013-11-07 07:04:00,
2013-11-07 02:09:00,70.6,67.2,29.98,ENE,63,0.0,0.0,89,0.00,,---,0.00,VWS V13.01,2013-11-07 07:09:00,
2013-11-07 02:14:00,70.5,67.1,29.98,ENE,63,0.0,0.0,89,0.00,,---,0.00,VWS V13.01,2013-11-07 07:14:00,
2013-11-07 02:19:00,70.4,67.0,29.98,ENE,65,0.0,0.0,89,0.00,,---,0.00,VWS V13.01,2013-11-07 07:19:00,
2013-11-07 02:24:00,70.4,67.0,29.98,ENE,78,0.0,0.0,89,0.00,,---,0.00,VWS V13.01,2013-11-07 07:24:00,
2013-11-07 02:29:00,70.3,66.9,29.98,ENE,78,0.0,0.0,89,0.00,,---,0.00,VWS V13.01,2013-11-07 07:29:00,
2013-11-07 02:34:00,70.2,66.8,29.97,ENE,78,0.0,0.0,89,0.00,,---,0.00,VWS V13.01,2013-11-07 07:34:00,
2013-11-07 02:39:00,70.2,66.8,29.97,ENE,78,0.0,0.0,89,0.00,,---,0.00,VWS V13.01,2013-11-07 07:39:00,
2013-11-07 02:44:00,70.1,66.7,29.97,East,80,0.0,0.0,89,0.00,,---,0.00,VWS V13.01,2013-11-07 07:44:00,
2013-11-07 02:50:00,70.1,66.7,29.97,East,81,0.0,0.0,89,0.00,,---,0.00,VWS V13.01,2013-11-07 07:50:00,
2013-11-07 02:55:00,70.0,66.6,29.97,ENE,71,0.0,0.0,89,0.00,,---,0.00,VWS V13.01,2013-11-07 07:55:00,
2013-11-07 03:00:00,70.0,66.6,29.97,ENE,72,0.0,0.0,89,0.00,,---,0.00,VWS V13.01,2013-11-07 08:00:00,
2013-11-07 03:05:00,70.0,66.6,29.97,ENE,72,0.0,0.0,89,0.00,,---,0.00,VWS V13.01,2013-11-07 08:05:00,
2013-11-07 03:10:00,69.9,66.5,29.97,ENE,72,0.0,0.0,89,0.00,,---,0.00,VWS V13.01,2013-11-07 08:10:00,
2013-11-07 03:15:00,69.9,66.5,29.97,ENE,72,0.0,0.0,89,0.00,,---,0.00,VWS V13.01,2013-11-07 08:15:00,
2013-11-07 03:20:00,69.8,66.4,29.97,ENE,72,0.0,0.0,89,0.00,,---,0.00,VWS V13.01,2013-11-07 08:20:00,
2013-11-07 03:25:00,69.9,66.5,29.96,ENE,72,0.0,0.0,89,0.00,,---,0.00,VWS V13.01,2013-11-07 08:25:00,
2013-11-07 03:30:00,69.8,66.4,29.96,ENE,72,0.0,0.0,89,0.00,,---,0.00,VWS V13.01,2013-11-07 08:30:00,
2013-11-07 03:35:00,69.8,66.4,29.96,ENE,72,0.0,0.0,89,0.00,,---,0.00,VWS V13.01,2013-11-07 08:35:00,
2013-11-07 03:40:00,69.8,66.4,29.96,ENE,72,0.0,0.0,89,0.00,,---,0.00,VWS V13.01,2013-11-07 08:40:00,
2013-11-07 03:45:00,69.8,66.4,29.96,ENE,72,0.0,0.0,89,0.00,,---,0.00,VWS V13.01,2013-11-07 08:45:00,
2013-11-07 03:50:00,69.8,66.4,29.95,ENE,72,0.0,0.0,89,0.00,,---,0.00,VWS V13.01,2013-11-07 08:50:00,
2013-11-07 03:56:00,69.7,66.3,29.96,ENE,72,0.0,0.0,89,0.00,,---,0.00,VWS V13.01,2013-11-07 08:56:00,
2013-11-07 04:01:00,69.7,66.6,29.95,ENE,72,0.0,0.0,90,0.00,,---,0.00,VWS V13.01,2013-11-07 09:01:00,
2013-11-07 04:06:00,69.6,66.5,29.96,ENE,72,0.0,0.0,90,0.00,,---,0.00,VWS V13.01,2013-11-07 09:06:00,
2013-11-07 04:11:00,69.6,66.2,29.96,ENE,72,0.0,0.0,89,0.00,,---,0.00,VWS V13.01,2013-11-07 09:11:00,
2013-11-07 04:16:00,69.6,66.5,29.96,ENE,72,0.0,0.0,90,0.00,,---,0.00,VWS V13.01,2013-11-07 09:16:00,
2013-11-07 04:21:00,69.5,66.4,29.96,ENE,72,0.0,0.0,90,0.00,,---,0.00,VWS V13.01,2013-11-07 09:21:00,
2013-11-07 04:26:00,69.5,66.4,29.95,ENE,72,0.0,0.0,90,0.00,,---,0.00,VWS V13.01,2013-11-07 09:26:00,
2013-11-07 04:31:00,69.5,66.4,29.95,ENE,72,0.0,0.0,90,0.00,,---,0.00,VWS V13.01,2013-11-07 09:31:00,
2013-11-07 04:36:00,69.5,66.4,29.95,ENE,72,0.0,0.0,90,0.00,,---,0.00,VWS V13.01,2013-11-07 09:36:00,
2013-11-07 04:41:00,69.5,66.4,29.95,ENE,72,0.0,0.0,90,0.00,,---,0.00,VWS V13.01,2013-11-07 09:41:00,
2013-11-07 04:46:00,69.4,66.3,29.95,ENE,72,0.0,0.0,90,0.00,,---,0.00,VWS V13.01,2013-11-07 09:46:00,
2013-11-07 04:51:00,69.4,66.3,29.95,ENE,72,0.0,0.0,90,0.00,,---,0.00,VWS V13.01,2013-11-07 09:51:00,
2013-11-07 04:56:00,69.4,66.3,29.95,ENE,72,0.0,0.0,90,0.00,,---,0.00,VWS V13.01,2013-11-07 09:56:00,
2013-11-07 05:02:00,69.3,66.2,29.96,ENE,71,0.0,0.0,90,0.00,,---,0.00,VWS V13.01,2013-11-07 10:02:00,
2013-11-07 05:07:00,69.3,66.2,29.96,ENE,71,0.0,0.0,90,0.00,,---,0.00,VWS V13.01,2013-11-07 10:07:00,
2013-11-07 05:12:00,69.3,66.2,29.96,ENE,71,0.0,0.0,90,0.00,,---,0.00,VWS V13.01,2013-11-07 10:12:00,
2013-11-07 05:17:00,69.2,66.2,29.96,ENE,71,0.0,0.0,90,0.00,,---,0.00,VWS V13.01,2013-11-07 10:17:00,
2013-11-07 05:22:00,69.2,66.2,29.96,ENE,71,0.0,0.0,90,0.00,,---,0.00,VWS V13.01,2013-11-07 10:22:00,
2013-11-07 05:27:00,69.1,66.1,29.96,ENE,71,0.0,0.0,90,0.00,,---,0.00,VWS V13.01,2013-11-07 10:27:00,
2013-11-07 05:32:00,69.1,66.1,29.96,ENE,71,0.0,0.0,90,0.00,,---,0.00,VWS V13.01,2013-11-07 10:32:00,
2013-11-07 05:37:00,69.0,65.9,29.96,ENE,71,0.0,0.0,90,0.00,,---,0.00,VWS V13.01,2013-11-07 10:37:00,
2013-11-07 05:42:00,69.0,65.9,29.96,ENE,71,0.0,0.0,90,0.00,,---,0.00,VWS V13.01,2013-11-07 10:42:00,
2013-11-07 05:47:00,68.9,65.8,29.96,ENE,71,0.0,0.0,90,0.00,,---,0.00,VWS V13.01,2013-11-07 10:47:00,
2013-11-07 05:52:00,68.9,65.8,29.96,ENE,71,0.0,0.0,90,0.00,,---,0.00,VWS V13.01,2013-11-07 10:52:00,
2013-11-07 05:57:00,68.8,65.8,29.96,ENE,71,0.0,0.0,90,0.00,,---,0.00,VWS V13.01,2013-11-07 10:57:00,
2013-11-07 06:02:00,68.7,65.7,29.96,ENE,71,0.0,0.0,90,0.00,,---,0.00,VWS V13.01,2013-11-07 11:02:00,
2013-11-07 06:08:00,68.7,65.7,29.97,ENE,71,0.0,0.0,90,0.00,,---,0.00,VWS V13.01,2013-11-07 11:08:00,
2013-11-07 06:13:00,68.8,65.8,29.97,ENE,71,0.0,0.0,90,0.00,,---,0.00,VWS V13.01,2013-11-07 11:13:00,
2013-11-07 06:18:00,68.7,65.7,29.97,ENE,71,0.0,0.0,90,0.00,,---,0.00,VWS V13.01,2013-11-07 11:18:00,
2013-11-07 06:23:00,68.7,65.7,29.97,ENE,71,0.0,0.0,90,0.00,,---,0.00,VWS V13.01,2013-11-07 11:23:00,
2013-11-07 06:28:00,68.7,66.0,29.97,ENE,71,0.0,0.0,91,0.00,,---,0.00,VWS V13.01,2013-11-07 11:28:00,
2013-11-07 06:33:00,68.7,66.0,29.98,ENE,71,0.0,0.0,91,0.00,,---,0.00,VWS V13.01,2013-11-07 11:33:00,
2013-11-07 06:34:00,68.6,65.9,29.98,ENE,71,0.0,0.0,91,0.00,,---,0.00,VWS V13.01,2013-11-07 11:34:00,
2013-11-07 06:39:00,68.6,65.9,29.98,ENE,71,0.0,0.0,91,0.00,,---,0.00,VWS V13.01,2013-11-07 11:39:00,
2013-11-07 06:44:00,68.7,66.0,29.98,ENE,71,0.0,0.0,91,0.00,,---,0.00,VWS V13.01,2013-11-07 11:44:00,
2013-11-07 06:49:00,68.6,65.9,29.99,ENE,71,0.0,0.0,91,0.00,,---,0.00,VWS V13.01,2013-11-07 11:49:00,
2013-11-07 06:54:00,68.6,65.9,29.99,ENE,71,0.0,0.0,91,0.00,,---,0.00,VWS V13.01,2013-11-07 11:54:00,
2013-11-07 06:59:00,68.6,65.9,29.99,ENE,71,0.0,0.0,91,0.00,,---,0.00,VWS V13.01,2013-11-07 11:59:00,
2013-11-07 07:04:00,68.5,65.8,29.99,ENE,71,0.0,0.0,91,0.00,,---,0.00,VWS V13.01,2013-11-07 12:04:00,
2013-11-07 07:09:00,68.6,65.9,29.99,ENE,71,0.0,0.0,91,0.00,,---,0.00,VWS V13.01,2013-11-07 12:09:00,
2013-11-07 07:14:00,68.7,66.0,29.99,ENE,71,0.0,0.0,91,0.00,,---,0.00,VWS V13.01,2013-11-07 12:14:00,
2013-11-07 07:19:00,68.7,66.0,29.99,ENE,71,0.0,0.0,91,0.00,,---,0.00,VWS V13.01,2013-11-07 12:19:00,
2013-11-07 07:25:00,68.8,66.1,29.99,ENE,71,0.0,0.0,91,0.00,,---,0.00,VWS V13.01,2013-11-07 12:25:00,
2013-11-07 07:30:00,69.0,66.3,30.00,ENE,71,0.0,0.0,91,0.00,,---,0.00,VWS V13.01,2013-11-07 12:30:00,
2013-11-07 07:35:00,69.2,66.8,30.00,ENE,71,0.0,0.0,92,0.00,,---,0.00,VWS V13.01,2013-11-07 12:35:00,
2013-11-07 07:40:00,69.4,67.0,30.00,ENE,71,0.0,0.0,92,0.00,,---,0.00,VWS V13.01,2013-11-07 12:40:00,
2013-11-07 07:45:00,69.6,66.9,30.00,ENE,71,0.0,0.0,91,0.00,,---,0.00,VWS V13.01,2013-11-07 12:45:00,
2013-11-07 07:50:00,69.7,67.0,30.00,ENE,71,0.0,0.0,91,0.00,,---,0.00,VWS V13.01,2013-11-07 12:50:00,
2013-11-07 07:55:00,69.9,67.2,30.00,ENE,71,0.0,0.0,91,0.00,,---,0.00,VWS V13.01,2013-11-07 12:55:00,
2013-11-07 08:00:00,70.1,67.4,30.00,ENE,71,0.0,0.0,91,0.00,,---,0.00,VWS V13.01,2013-11-07 13:00:00,
2013-11-07 08:05:00,70.3,67.6,30.00,ENE,71,0.0,0.0,91,0.00,,---,0.00,VWS V13.01,2013-11-07 13:05:00,
2013-11-07 08:10:00,70.4,67.3,30.00,ENE,71,0.0,0.0,90,0.00,,---,0.00,VWS V13.01,2013-11-07 13:10:00,
2013-11-07 08:15:00,70.6,67.5,30.01,ENE,71,0.0,0.0,90,0.00,,---,0.00,VWS V13.01,2013-11-07 13:15:00,
2013-11-07 08:20:00,70.7,67.6,30.01,ENE,71,0.0,0.0,90,0.00,,---,0.00,VWS V13.01,2013-11-07 13:20:00,
2013-11-07 08:25:00,70.9,67.8,30.01,ENE,71,0.0,0.0,90,0.00,,---,0.00,VWS V13.01,2013-11-07 13:25:00,
2013-11-07 08:30:00,71.2,68.1,30.01,ENE,71,0.0,0.0,90,0.00,,---,0.00,VWS V13.01,2013-11-07 13:30:00,
2013-11-07 08:36:00,71.6,68.2,30.01,ENE,71,0.0,0.0,89,0.00,,---,0.00,VWS V13.01,2013-11-07 13:36:00,
2013-11-07 08:41:00,72.0,68.6,30.01,ENE,71,0.0,0.0,89,0.00,,---,0.00,VWS V13.01,2013-11-07 13:41:00,
2013-11-07 08:46:00,72.3,68.6,30.01,ENE,71,0.0,0.0,88,0.00,,---,0.00,VWS V13.01,2013-11-07 13:46:00,
2013-11-07 08:51:00,72.6,68.8,30.01,ENE,71,0.0,0.0,88,0.00,,---,0.00,VWS V13.01,2013-11-07 13:51:00,
2013-11-07 08:56:00,72.8,68.7,30.02,ENE,71,0.0,0.0,87,0.00,,---,0.00,VWS V13.01,2013-11-07 13:56:00,
2013-11-07 09:01:00,73.0,68.6,30.02,ENE,71,0.0,0.0,86,0.00,,---,0.00,VWS V13.01,2013-11-07 14:01:00,
2013-11-07 09:06:00,73.2,68.8,30.02,ENE,71,0.0,0.0,86,0.00,,---,0.00,VWS V13.01,2013-11-07 14:06:00,
2013-11-07 09:11:00,73.5,68.7,30.02,ENE,71,0.0,0.0,85,0.00,,---,0.00,VWS V13.01,2013-11-07 14:11:00,
2013-11-07 09:16:00,74.1,69.3,30.02,ENE,71,0.0,0.0,85,0.00,,---,0.00,VWS V13.01,2013-11-07 14:16:00,
2013-11-07 09:21:00,74.7,69.6,30.02,ENE,71,0.0,0.0,84,0.00,,---,0.00,VWS V13.01,2013-11-07 14:21:00,
2013-11-07 09:26:00,74.9,69.4,30.02,ENE,71,0.0,0.0,83,0.00,,---,0.00,VWS V13.01,2013-11-07 14:26:00,
2013-11-07 09:31:00,75.0,69.1,30.02,ENE,71,0.0,0.0,82,0.00,,---,0.00,VWS V13.01,2013-11-07 14:31:00,
2013-11-07 09:36:00,75.3,69.4,30.02,ENE,71,0.0,0.0,82,0.00,,---,0.00,VWS V13.01,2013-11-07 14:36:00,
2013-11-07 09:41:00,75.8,69.6,30.02,ENE,64,0.0,1.0,81,0.00,,---,0.00,VWS V13.01,2013-11-07 14:41:00,
2013-11-07 09:47:00,76.2,69.6,30.02,ENE,63,0.0,1.0,80,0.00,,---,0.00,VWS V13.01,2013-11-07 14:47:00,
2013-11-07 09:52:00,76.6,69.6,30.02,ENE,63,0.0,1.0,79,0.00,,---,0.00,VWS V13.01,2013-11-07 14:52:00,
2013-11-07 09:57:00,76.8,69.8,30.02,ENE,63,0.0,1.0,79,0.00,,---,0.00,VWS V13.01,2013-11-07 14:57:00,
2013-11-07 10:02:00,77.2,70.2,30.02,ENE,63,0.0,0.0,79,0.00,,---,0.00,VWS V13.01,2013-11-07 15:02:00,
2013-11-07 10:07:00,77.8,70.4,30.02,ENE,63,0.0,0.0,78,0.00,,---,0.00,VWS V13.01,2013-11-07 15:07:00,
2013-11-07 10:12:00,78.5,70.3,30.02,ENE,62,0.0,0.0,76,0.00,,---,0.00,VWS V13.01,2013-11-07 15:12:00,
2013-11-07 10:17:00,78.8,70.2,30.02,ENE,62,0.0,0.0,75,0.00,,---,0.00,VWS V13.01,2013-11-07 15:17:00,
2013-11-07 10:22:00,78.9,69.9,30.02,ENE,62,0.0,0.0,74,0.00,,---,0.00,VWS V13.01,2013-11-07 15:22:00,
2013-11-07 10:27:00,79.1,70.5,30.02,ENE,63,0.0,0.0,75,0.00,,---,0.00,VWS V13.01,2013-11-07 15:27:00,
2013-11-07 10:32:00,79.1,70.5,30.02,East,87,0.0,0.0,75,0.00,,---,0.00,VWS V13.01,2013-11-07 15:32:00,
2013-11-07 10:37:00,78.7,70.5,30.02,East,86,0.0,0.0,76,0.00,,---,0.00,VWS V13.01,2013-11-07 15:37:00,
2013-11-07 10:42:00,78.5,70.7,30.02,East,98,0.0,0.0,77,0.00,,---,0.00,VWS V13.01,2013-11-07 15:42:00,
2013-11-07 10:48:00,77.9,70.1,30.02,East,92,0.0,0.0,77,0.00,,---,0.00,VWS V13.01,2013-11-07 15:48:00,
2013-11-07 10:53:00,77.6,70.2,30.02,East,92,0.0,0.0,78,0.00,,---,0.00,VWS V13.01,2013-11-07 15:53:00,
2013-11-07 10:58:00,77.8,70.4,30.01,SSE,155,0.0,0.0,78,0.00,,---,0.00,VWS V13.01,2013-11-07 15:58:00,
2013-11-07 11:03:00,77.7,70.3,30.01,SSE,155,0.0,0.0,78,0.00,,---,0.00,VWS V13.01,2013-11-07 16:03:00,
2013-11-07 11:08:00,77.7,70.3,30.01,SSE,163,0.0,0.0,78,0.00,,---,0.00,VWS V13.01,2013-11-07 16:08:00,
2013-11-07 11:13:00,77.5,70.1,30.01,SSE,167,0.0,0.0,78,0.00,,---,0.00,VWS V13.01,2013-11-07 16:13:00,
2013-11-07 11:18:00,78.2,70.8,30.01,SSE,167,0.0,0.0,78,0.00,,---,0.00,VWS V13.01,2013-11-07 16:18:00,
2013-11-07 11:23:00,78.8,71.0,30.01,SSE,168,0.0,0.0,77,0.00,,---,0.00,VWS V13.01,2013-11-07 16:23:00,
2013-11-07 11:28:00,78.6,70.8,30.01,South,177,0.0,0.0,77,0.00,,---,0.00,VWS V13.01,2013-11-07 16:28:00,
2013-11-07 11:33:00,78.3,70.5,30.01,South,182,0.0,0.0,77,0.00,,---,0.00,VWS V13.01,2013-11-07 16:33:00,
2013-11-07 11:38:00,78.0,70.6,30.00,SSW,194,0.0,0.0,78,0.00,,---,0.00,VWS V13.01,2013-11-07 16:38:00,
2013-11-07 11:43:00,77.7,70.3,30.00,SSW,199,0.0,0.0,78,0.00,,---,0.00,VWS V13.01,2013-11-07 16:43:00,
2013-11-07 11:48:00,77.7,70.7,30.00,South,181,0.0,0.0,79,0.00,,---,0.00,VWS V13.01,2013-11-07 16:48:00,
2013-11-07 11:54:00,77.8,69.2,30.00,NNE,15,0.0,0.0,75,0.00,,---,0.00,VWS V13.01,2013-11-07 16:54:00,
2013-11-07 11:59:00,78.0,69.1,30.00,West,271,0.0,0.0,74,0.00,,---,0.00,VWS V13.01,2013-11-07 16:59:00,
2013-11-07 12:04:00,78.1,68.8,30.00,WNW,295,0.0,0.0,73,0.00,,---,0.00,VWS V13.01,2013-11-07 17:04:00,
2013-11-07 12:09:00,78.2,68.8,30.00,NNW,338,0.0,0.0,73,0.00,,---,0.00,VWS V13.01,2013-11-07 17:09:00,
2013-11-07 12:14:00,78.4,69.0,29.99,NNW,328,0.0,0.0,73,0.00,,---,0.00,VWS V13.01,2013-11-07 17:14:00,
2013-11-07 12:19:00,78.6,69.2,29.99,NW,323,0.0,0.0,73,0.00,,---,0.00,VWS V13.01,2013-11-07 17:19:00,
2013-11-07 12:24:00,78.5,68.3,29.99,NNW,337,0.0,5.0,71,0.00,,---,0.00,VWS V13.01,2013-11-07 17:24:00,
2013-11-07 12:29:00,78.7,68.1,29.99,NW,321,0.0,5.0,70,0.00,,---,0.00,VWS V13.01,2013-11-07 17:29:00,
2013-11-07 12:34:00,79.0,69.2,29.98,NNE,17,0.0,0.0,72,0.00,,---,0.00,VWS V13.01,2013-11-07 17:34:00,
2013-11-07 12:39:00,78.9,69.5,29.98,NW,311,0.0,1.0,73,0.00,,---,0.00,VWS V13.01,2013-11-07 17:39:00,
2013-11-07 12:44:00,78.7,68.5,29.98,North,360,0.0,1.0,71,0.00,,---,0.00,VWS V13.01,2013-11-07 17:44:00,
2013-11-07 12:49:00,78.9,69.1,29.98,North,5,0.0,2.0,72,0.00,,---,0.00,VWS V13.01,2013-11-07 17:49:00,
2013-11-07 12:54:00,79.1,69.3,29.97,West,272,2.0,4.0,72,0.00,,---,0.00,VWS V13.01,2013-11-07 17:54:00,
2013-11-07 12:58:00,79.0,69.2,29.97,NW,321,0.0,7.0,72,0.00,,---,0.00,VWS V13.01,2013-11-07 17:58:00,
2013-11-07 13:03:00,78.9,68.3,29.97,NW,326,0.0,4.0,70,0.00,,---,0.00,VWS V13.01,2013-11-07 18:03:00,
2013-11-07 13:08:00,78.6,68.4,29.97,NW,306,0.0,5.0,71,0.00,,---,0.00,VWS V13.01,2013-11-07 18:08:00,
2013-11-07 13:13:00,78.7,68.5,29.96,North,350,0.0,11.0,71,0.00,,---,0.00,VWS V13.01,2013-11-07 18:13:00,
2013-11-07 13:18:00,78.9,68.7,29.96,West,277,0.0,11.0,71,0.00,,---,0.00,VWS V13.01,2013-11-07 18:18:00,
2013-11-07 13:23:00,79.1,68.9,29.96,North,5,0.0,11.0,71,0.00,,---,0.00,VWS V13.01,2013-11-07 18:23:00,
2013-11-07 13:28:00,79.4,68.3,29.96,North,11,0.0,11.0,69,0.00,,---,0.00,VWS V13.01,2013-11-07 18:28:00,
2013-11-07 13:34:00,79.8,68.7,29.95,North,5,0.0,1.0,69,0.00,,---,0.00,VWS V13.01,2013-11-07 18:34:00,
2013-11-07 13:39:00,80.0,68.9,29.95,West,268,1.0,5.0,69,0.00,,---,0.00,VWS V13.01,2013-11-07 18:39:00,
2013-11-07 13:44:00,79.5,68.4,29.95,West,275,0.0,5.0,69,0.00,,---,0.00,VWS V13.01,2013-11-07 18:44:00,
2013-11-07 13:49:00,79.1,68.5,29.96,West,279,0.0,5.0,70,0.00,,---,0.00,VWS V13.01,2013-11-07 18:49:00,
2013-11-07 13:54:00,78.6,68.0,29.95,WNW,302,0.0,5.0,70,0.00,,---,0.00,VWS V13.01,2013-11-07 18:54:00,
2013-11-07 13:59:00,78.6,68.4,29.95,NW,304,0.0,5.0,71,0.00,,---,0.00,VWS V13.01,2013-11-07 18:59:00,
2013-11-07 14:04:00,78.8,68.2,29.95,NW,323,0.0,3.0,70,0.00,,---,0.00,VWS V13.01,2013-11-07 19:04:00,
2013-11-07 14:09:00,78.8,68.2,29.95,WNW,292,0.0,3.0,70,0.00,,---,0.00,VWS V13.01,2013-11-07 19:09:00,
2013-11-07 14:14:00,78.7,68.1,29.95,NNW,327,0.0,5.0,70,0.00,,---,0.00,VWS V13.01,2013-11-07 19:14:00,
2013-11-07 14:19:00,78.7,68.1,29.95,NNW,342,1.0,5.0,70,0.00,,---,0.00,VWS V13.01,2013-11-07 19:19:00,
2013-11-07 14:24:00,78.6,68.8,29.95,WNW,296,1.0,5.0,72,0.00,,---,0.00,VWS V13.01,2013-11-07 19:24:00,
2013-11-07 14:29:00,78.1,68.3,29.95,NNW,327,0.0,6.0,72,0.00,,---,0.00,VWS V13.01,2013-11-07 19:29:00,
2013-11-07 14:34:00,77.6,68.3,29.95,NNE,24,0.0,0.0,73,0.00,,---,0.00,VWS V13.01,2013-11-07 19:34:00,
2013-11-07 14:39:00,77.5,68.6,29.95,NW,306,0.0,0.0,74,0.00,,---,0.00,VWS V13.01,2013-11-07 19:39:00,
2013-11-07 14:45:00,77.3,68.4,29.95,WNW,295,1.0,4.0,74,0.00,,---,0.00,VWS V13.01,2013-11-07 19:45:00,
2013-11-07 14:50:00,76.9,68.4,29.95,North,10,0.0,5.0,75,0.00,,---,0.00,VWS V13.01,2013-11-07 19:50:00,
2013-11-07 14:55:00,77.0,68.5,29.94,NNW,338,0.0,5.0,75,0.00,,---,0.00,VWS V13.01,2013-11-07 19:55:00,
2013-11-07 15:00:00,76.9,68.0,29.94,WSW,254,0.0,5.0,74,0.00,,---,0.00,VWS V13.01,2013-11-07 20:00:00,
2013-11-07 15:05:00,76.4,67.9,29.94,WSW,254,0.0,3.0,75,0.00,,---,0.00,VWS V13.01,2013-11-07 20:05:00,
2013-11-07 15:10:00,76.4,67.9,29.94,NNE,30,0.0,6.0,75,0.00,,---,0.00,VWS V13.01,2013-11-07 20:10:00,
2013-11-07 15:15:00,76.4,67.9,29.94,NW,311,0.0,6.0,75,0.00,,---,0.00,VWS V13.01,2013-11-07 20:15:00,
2013-11-07 15:20:00,76.2,68.1,29.94,NW,319,0.0,6.0,76,0.00,,---,0.00,VWS V13.01,2013-11-07 20:20:00,
2013-11-07 15:25:00,76.0,67.9,29.94,WNW,297,0.0,6.0,76,0.00,,---,0.00,VWS V13.01,2013-11-07 20:25:00,
2013-11-07 15:30:00,75.9,67.8,29.94,NNW,344,0.0,6.0,76,0.00,,---,0.00,VWS V13.01,2013-11-07 20:30:00,
2013-11-07 15:35:00,75.9,68.2,29.94,WNW,284,0.0,3.0,77,0.00,,---,0.00,VWS V13.01,2013-11-07 20:35:00,
2013-11-07 15:40:00,76.1,68.4,29.94,WNW,296,0.0,3.0,77,0.00,,---,0.00,VWS V13.01,2013-11-07 20:40:00,
2013-11-07 15:45:00,76.1,68.0,29.94,WNW,298,0.0,3.0,76,0.00,,---,0.00,VWS V13.01,2013-11-07 20:45:00,
2013-11-07 15:51:00,76.1,68.4,29.94,NNE,16,0.0,5.0,77,0.00,,---,0.00,VWS V13.01,2013-11-07 20:51:00,
2013-11-07 15:56:00,76.0,67.9,29.94,North,5,0.0,6.0,76,0.00,,---,0.00,VWS V13.01,2013-11-07 20:56:00,
2013-11-07 16:01:00,76.1,67.6,29.94,WNW,302,0.0,0.0,75,0.00,,---,0.00,VWS V13.01,2013-11-07 21:01:00,
2013-11-07 16:06:00,76.1,67.6,29.94,North,11,0.0,6.0,75,0.00,,---,0.00,VWS V13.01,2013-11-07 21:06:00,
2013-11-07 16:11:00,76.0,67.5,29.94,NW,320,0.0,6.0,75,0.00,,---,0.00,VWS V13.01,2013-11-07 21:11:00,
2013-11-07 16:16:00,75.7,67.2,29.94,NNW,344,0.0,6.0,75,0.00,,---,0.00,VWS V13.01,2013-11-07 21:16:00,
2013-11-07 16:21:00,75.6,67.5,29.94,NNW,346,0.0,6.0,76,0.00,,---,0.00,VWS V13.01,2013-11-07 21:21:00,
2013-11-07 16:26:00,75.5,67.4,29.94,NNW,329,0.0,6.0,76,0.00,,---,0.00,VWS V13.01,2013-11-07 21:26:00,
2013-11-07 16:31:00,75.3,67.2,29.94,NNW,348,0.0,0.0,76,0.00,,---,0.00,VWS V13.01,2013-11-07 21:31:00,
2013-11-07 16:36:00,75.3,67.2,29.94,North,355,0.0,1.0,76,0.00,,---,0.00,VWS V13.01,2013-11-07 21:36:00,
2013-11-07 16:42:00,75.1,67.4,29.94,North,351,0.0,1.0,77,0.00,,---,0.00,VWS V13.01,2013-11-07 21:42:00,
2013-11-07 16:47:00,75.1,67.4,29.94,NNW,347,0.0,1.0,77,0.00,,---,0.00,VWS V13.01,2013-11-07 21:47:00,
2013-11-07 16:52:00,75.0,67.3,29.94,NNW,347,0.0,1.0,77,0.00,,---,0.00,VWS V13.01,2013-11-07 21:52:00,
2013-11-07 16:57:00,74.9,67.2,29.94,North,360,0.0,1.0,77,0.00,,---,0.00,VWS V13.01,2013-11-07 21:57:00,
2013-11-07 17:02:00,74.8,67.1,29.94,NW,323,0.0,0.0,77,0.00,,---,0.00,VWS V13.01,2013-11-07 22:02:00,
2013-11-07 17:07:00,74.6,66.9,29.95,NW,325,0.0,1.0,77,0.00,,---,0.00,VWS V13.01,2013-11-07 22:07:00,
2013-11-07 17:12:00,74.5,66.8,29.95,NNW,330,0.0,1.0,77,0.00,,---,0.00,VWS V13.01,2013-11-07 22:12:00,
2013-11-07 17:17:00,74.3,67.0,29.95,NW,315,0.0,2.0,78,0.00,,---,0.00,VWS V13.01,2013-11-07 22:17:00,
2013-11-07 17:22:00,74.1,66.8,29.95,West,280,0.0,2.0,78,0.00,,---,0.00,VWS V13.01,2013-11-07 22:22:00,
2013-11-07 17:27:00,74.0,67.1,29.95,NNW,341,0.0,2.0,79,0.00,,---,0.00,VWS V13.01,2013-11-07 22:27:00,
2013-11-07 17:32:00,73.8,66.9,29.95,NNW,346,0.0,0.0,79,0.00,,---,0.00,VWS V13.01,2013-11-07 22:32:00,
2013-11-07 17:37:00,73.7,66.8,29.95,North,355,0.0,0.0,79,0.00,,---,0.00,VWS V13.01,2013-11-07 22:37:00,
2013-11-07 17:42:00,73.5,67.0,29.95,North,360,0.0,0.0,80,0.00,,---,0.00,VWS V13.01,2013-11-07 22:42:00,
2013-11-07 17:47:00,73.4,66.9,29.95,North,360,0.0,0.0,80,0.00,,---,0.00,VWS V13.01,2013-11-07 22:47:00,
2013-11-07 17:53:00,73.2,66.7,29.95,NNW,344,0.0,0.0,80,0.00,,---,0.00,VWS V13.01,2013-11-07 22:53:00,
2013-11-07 17:58:00,73.1,66.6,29.95,North,355,0.0,1.0,80,0.00,,---,0.00,VWS V13.01,2013-11-07 22:58:00,
2013-11-07 18:03:00,73.0,66.8,29.95,North,360,0.0,0.0,81,0.00,,---,0.00,VWS V13.01,2013-11-07 23:03:00,
2013-11-07 18:08:00,72.9,66.7,29.96,North,5,0.0,0.0,81,0.00,,---,0.00,VWS V13.01,2013-11-07 23:08:00,
2013-11-07 18:13:00,72.7,66.5,29.96,North,5,0.0,0.0,81,0.00,,---,0.00,VWS V13.01,2013-11-07 23:13:00,
2013-11-07 18:18:00,72.6,66.4,29.96,NW,317,0.0,0.0,81,0.00,,---,0.00,VWS V13.01,2013-11-07 23:18:00,
2013-11-07 18:23:00,72.4,66.6,29.96,WNW,284,0.0,0.0,82,0.00,,---,0.00,VWS V13.01,2013-11-07 23:23:00,
2013-11-07 18:28:00,72.2,66.4,29.96,WNW,286,0.0,0.0,82,0.00,,---,0.00,VWS V13.01,2013-11-07 23:28:00,
2013-11-07 18:33:00,72.1,66.7,29.97,WNW,286,0.0,0.0,83,0.00,,---,0.00,VWS V13.01,2013-11-07 23:33:00,
2013-11-07 18:38:00,72.0,66.6,29.97,WNW,290,0.0,0.0,83,0.00,,---,0.00,VWS V13.01,2013-11-07 23:38:00,
2013-11-07 18:43:00,72.0,66.6,29.97,NW,304,0.0,0.0,83,0.00,,---,0.00,VWS V13.01,2013-11-07 23:43:00,
2013-11-07 18:48:00,71.9,66.5,29.97,North,5,0.0,0.0,83,0.00,,---,0.00,VWS V13.01,2013-11-07 23:48:00,
2013-11-07 18:54:00,71.9,66.5,29.97,North,9,0.0,1.0,83,0.00,,---,0.00,VWS V13.01,2013-11-07 23:54:00,
2013-11-07 18:59:00,71.8,66.7,29.97,North,9,0.0,1.0,84,0.00,,---,0.00,VWS V13.01,2013-11-07 23:59:00,
2013-11-07 19:04:00,71.7,66.6,29.97,NNE,12,0.0,0.0,84,0.00,,---,0.00,VWS V13.01,2013-11-08 00:04:00,
2013-11-07 19:09:00,71.6,66.9,29.97,North,11,0.0,0.0,85,0.00,,---,0.00,VWS V13.01,2013-11-08 00:09:00,
2013-11-07 19:14:00,71.6,66.9,29.97,North,11,0.0,0.0,85,0.00,,---,0.00,VWS V13.01,2013-11-08 00:14:00,
2013-11-07 19:19:00,71.5,66.8,29.97,North,11,0.0,0.0,85,0.00,,---,0.00,VWS V13.01,2013-11-08 00:19:00,
2013-11-07 19:24:00,71.4,66.7,29.97,North,11,0.0,0.0,85,0.00,,---,0.00,VWS V13.01,2013-11-08 00:24:00,
2013-11-07 19:29:00,71.3,66.6,29.98,NNE,13,0.0,0.0,85,0.00,,---,0.00,VWS V13.01,2013-11-08 00:29:00,
2013-11-07 19:34:00,71.2,66.8,29.98,NNE,13,0.0,0.0,86,0.00,,---,0.00,VWS V13.01,2013-11-08 00:34:00,
2013-11-07 19:39:00,71.2,66.8,29.98,NNE,13,0.0,0.0,86,0.00,,---,0.00,VWS V13.01,2013-11-08 00:39:00,
2013-11-07 19:44:00,71.1,66.7,29.98,NNE,13,0.0,0.0,86,0.00,,---,0.00,VWS V13.01,2013-11-08 00:44:00,
2013-11-07 19:50:00,71.0,66.6,29.98,NNE,13,0.0,0.0,86,0.00,,---,0.00,VWS V13.01,2013-11-08 00:50:00,
2013-11-07 19:55:00,70.9,66.8,29.98,NNE,13,0.0,0.0,87,0.00,,---,0.00,VWS V13.01,2013-11-08 00:55:00,
2013-11-07 20:00:00,70.8,66.7,29.98,NNE,13,0.0,0.0,87,0.00,,---,0.00,VWS V13.01,2013-11-08 01:00:00,
2013-11-07 20:05:00,70.8,66.7,29.98,NNE,15,0.0,0.0,87,0.00,,---,0.00,VWS V13.01,2013-11-08 01:05:00,
2013-11-07 20:10:00,70.8,66.7,29.98,NNE,15,0.0,0.0,87,0.00,,---,0.00,VWS V13.01,2013-11-08 01:10:00,
2013-11-07 20:15:00,70.8,66.7,29.98,NNE,15,0.0,0.0,87,0.00,,---,0.00,VWS V13.01,2013-11-08 01:15:00,
2013-11-07 20:20:00,70.8,66.7,29.98,NNE,15,0.0,0.0,87,0.00,,---,0.00,VWS V13.01,2013-11-08 01:20:00,
2013-11-07 20:25:00,70.8,66.7,29.98,NNE,16,0.0,0.0,87,0.00,,---,0.00,VWS V13.01,2013-11-08 01:25:00,
2013-11-07 20:30:00,70.7,66.7,29.98,NNE,16,0.0,0.0,87,0.00,,---,0.00,VWS V13.01,2013-11-08 01:30:00,
2013-11-07 20:35:00,70.7,66.7,29.98,NNE,16,0.0,0.0,87,0.00,,---,0.00,VWS V13.01,2013-11-08 01:35:00,
2013-11-07 20:40:00,70.7,66.7,29.98,NNE,16,0.0,0.0,87,0.00,,---,0.00,VWS V13.01,2013-11-08 01:40:00,
2013-11-07 20:46:00,70.6,66.9,29.98,NNE,17,0.0,0.0,88,0.00,,---,0.00,VWS V13.01,2013-11-08 01:46:00,
2013-11-07 20:51:00,70.6,66.9,29.98,NNE,17,0.0,0.0,88,0.00,,---,0.00,VWS V13.01,2013-11-08 01:51:00,
2013-11-07 20:56:00,70.6,66.9,29.98,NNE,17,0.0,0.0,88,0.00,,---,0.00,VWS V13.01,2013-11-08 01:56:00,
2013-11-07 21:01:00,70.5,66.8,29.98,NNE,17,0.0,0.0,88,0.00,,---,0.00,VWS V13.01,2013-11-08 02:01:00,
2013-11-07 21:06:00,70.5,66.8,29.98,NNE,17,0.0,0.0,88,0.00,,---,0.00,VWS V13.01,2013-11-08 02:06:00,
2013-11-07 21:11:00,70.4,66.7,29.98,NNE,17,0.0,0.0,88,0.00,,---,0.00,VWS V13.01,2013-11-08 02:11:00,
2013-11-07 21:16:00,70.4,66.7,29.98,NNE,17,0.0,0.0,88,0.00,,---,0.00,VWS V13.01,2013-11-08 02:16:00,
2013-11-07 21:21:00,70.3,66.9,29.98,NNE,17,0.0,0.0,89,0.00,,---,0.00,VWS V13.01,2013-11-08 02:21:00,
2013-11-07 21:26:00,70.3,66.9,29.98,NNE,17,0.0,0.0,89,0.00,,---,0.00,VWS V13.01,2013-11-08 02:26:00,
2013-11-07 21:31:00,70.3,66.9,29.98,NNE,17,0.0,0.0,89,0.00,,---,0.00,VWS V13.01,2013-11-08 02:31:00,
2013-11-07 21:36:00,70.3,66.9,29.98,NNE,17,0.0,0.0,89,0.00,,---,0.00,VWS V13.01,2013-11-08 02:36:00,
2013-11-07 21:41:00,70.2,66.8,29.98,NNE,17,0.0,0.0,89,0.00,,---,0.00,VWS V13.01,2013-11-08 02:41:00,
2013-11-07 21:47:00,70.2,66.8,29.98,NNE,17,0.0,0.0,89,0.00,,---,0.00,VWS V13.01,2013-11-08 02:47:00,
2013-11-07 21:52:00,70.2,66.8,29.98,NNE,17,0.0,0.0,89,0.00,,---,0.00,VWS V13.01,2013-11-08 02:52:00,
2013-11-07 21:57:00,70.2,66.8,29.98,NNE,17,0.0,0.0,89,0.00,,---,0.00,VWS V13.01,2013-11-08 02:57:00,
2013-11-07 22:02:00,70.2,66.8,29.97,NNE,17,0.0,0.0,89,0.00,,---,0.00,VWS V13.01,2013-11-08 03:02:00,
2013-11-07 22:07:00,70.3,66.9,29.97,NNE,17,0.0,0.0,89,0.00,,---,0.00,VWS V13.01,2013-11-08 03:07:00,
2013-11-07 22:12:00,70.3,66.9,29.97,NNE,17,0.0,0.0,89,0.00,,---,0.00,VWS V13.01,2013-11-08 03:12:00,
2013-11-07 22:17:00,70.3,67.2,29.97,NNE,17,0.0,0.0,90,0.00,,---,0.00,VWS V13.01,2013-11-08 03:17:00,
2013-11-07 22:22:00,70.2,67.1,29.97,NNE,17,0.0,0.0,90,0.00,,---,0.00,VWS V13.01,2013-11-08 03:22:00,
2013-11-07 22:27:00,70.2,67.1,29.97,NNE,17,0.0,0.0,90,0.00,,---,0.00,VWS V13.01,2013-11-08 03:27:00,
2013-11-07 22:32:00,70.1,67.0,29.97,NNE,17,0.0,0.0,90,0.00,,---,0.00,VWS V13.01,2013-11-08 03:32:00,
2013-11-07 22:38:00,70.1,67.0,29.97,NNE,17,0.0,0.0,90,0.00,,---,0.00,VWS V13.01,2013-11-08 03:38:00,
2013-11-07 22:43:00,70.1,67.0,29.97,NNE,17,0.0,0.0,90,0.00,,---,0.00,VWS V13.01,2013-11-08 03:43:00,
2013-11-07 22:48:00,70.1,67.0,29.97,NNE,17,0.0,0.0,90,0.00,,---,0.00,VWS V13.01,2013-11-08 03:48:00,
2013-11-07 22:53:00,70.1,67.0,29.97,NNE,17,0.0,0.0,90,0.00,,---,0.00,VWS V13.01,2013-11-08 03:53:00,
2013-11-07 22:58:00,70.1,67.0,29.98,NNE,17,0.0,0.0,90,0.00,,---,0.00,VWS V13.01,2013-11-08 03:58:00,
2013-11-07 23:03:00,70.1,67.0,29.98,NNE,17,0.0,0.0,90,0.00,,---,0.00,VWS V13.01,2013-11-08 04:03:00,
2013-11-07 23:08:00,70.1,67.4,29.98,NNE,17,0.0,0.0,91,0.00,,---,0.00,VWS V13.01,2013-11-08 04:08:00,
2013-11-07 23:13:00,70.1,67.4,29.97,NNE,17,0.0,0.0,91,0.00,,---,0.00,VWS V13.01,2013-11-08 04:13:00,
2013-11-07 23:18:00,70.1,67.4,29.97,NNE,17,0.0,0.0,91,0.00,,---,0.00,VWS V13.01,2013-11-08 04:18:00,
2013-11-07 23:23:00,70.1,67.4,29.97,NNE,17,0.0,0.0,91,0.00,,---,0.00,VWS V13.01,2013-11-08 04:23:00,
2013-11-07 23:29:00,70.1,67.4,29.97,NNE,17,0.0,0.0,91,0.00,,---,0.00,VWS V13.01,2013-11-08 04:29:00,
2013-11-07 23:34:00,70.1,67.4,29.97,NNE,16,0.0,0.0,91,0.00,,---,0.00,VWS V13.01,2013-11-08 04:34:00,
2013-11-07 23:39:00,70.1,67.4,29.97,NNE,18,0.0,0.0,91,0.00,,---,0.00,VWS V13.01,2013-11-08 04:39:00,
2013-11-07 23:44:00,70.1,67.4,29.97,NNE,22,0.0,0.0,91,0.00,,---,0.00,VWS V13.01,2013-11-08 04:44:00,
2013-11-07 23:49:00,70.1,67.4,29.97,NNE,21,0.0,0.0,91,0.00,,---,0.00,VWS V13.01,2013-11-08 04:49:00,
2013-11-07 23:54:00,70.2,67.4,29.98,NNE,22,0.0,0.0,91,0.00,,---,0.00,VWS V13.01,2013-11-08 04:54:00,
2013-11-07 23:59:00,70.2,67.1,29.97,NNE,19,0.0,0.0,90,0.00,,---,0.00,VWS V13.01,2013-11-08 04:59:00,